Location: Clermont
(50.2608°N, 4.3172°E)
Time: 07:27:11
(UTC+00:00)

Cosmos 676 Rocket - Pass Details

Date: 13 August 2020
Orbit: 755 x 784 km, 74.0° (Epoch: 26 September)

Event Time Altitude Azimuth Distance (km) Brightness Sun altitude
Rises 19:51:11 0° 185° (S) 3,252 7.0 -7.4°
Reaches altitude 10° 19:53:36 10° 181° (S) 2,331 6.2 -7.7°
Maximum altitude 19:58:43 51° 106° (ESE) 988 4.2 -8.4°
Drops below altitude 10° 20:03:52 10° 32° (NNE) 2,352 6.6 -9.0°
Sets 20:06:19 0° 28° (NNE) 3,284 7.4 -9.3°
